User: anonymous   Login
Location: McDonald Observatory
(30.6717°N, 104.0221°W)
Time: 14:47:28
(UTC-05:00)
Language:

Cosmos 1484 Rocket - Orbit

View from above orbital plane
View from above orbital plane
View from above satellite
View from above satellite

Ground track
Ground track

The orbit data is extracted from the following two-line orbital elements,

1 14208U 83075B   15146.81216253  .00001040  00000-0  68729-4 0  9994
2 14208 097.3859 176.1481 0040368 201.4502 158.5037 15.08882477733980
Epoch (UTC): 26 May 2015 19:29:30
Eccentricity: 0.0040368
inclination: 97.3859°
perigee height: 511 km
apogee height: 567 km
right ascension of ascending node: 176.1481°
argument of perigee: 201.4502°
revolutions per day: 15.08882477
mean anomaly at epoch: 158.5037°
orbit number at epoch: 73398

The dashed part of the orbit path shows where the satellite is in the earth's shadow,  

DLR